#Datum;Uhrzeit;WR;Pac;DaySum;Status;WR;Pac;DaySum;Status;Pdc1;Udc;Temp;WR;Pac;DaySum;Status;Pdc1;Udc;Temp;WR;Pac;DaySum;Status;Pdc1;Udc;Temp;WR;Pac;DaySum;Status;Pdc1;Pdc2;Udc1;Udc2;Temp;WR;Pac;DaySum;Status;Pdc1;Pdc2;Udc1;Udc2;Temp;WR;Pac;DaySum;Status;Pdc1;Udc;Temp;WR;Pac;DaySum;Status;Pdc1;Udc;Temp;WR;Pac;DaySum;Status;Pdc1;Udc;Temp
13.12.20;23:55:00;1;399;13466;0;2;0;1105;0;0;0;0;3;0;595;0;0;0;0;4;0;841;0;0;0;0;5;0;0;0;0;0;0;0;0;6;0;1628;0;0;0;0;0;0;7;0;1030;0;0;0;0;8;0;1044;0;0;0;0;9;0;484;0;0;0;0
13.12.20;23:50:00;1;430;13432;0;2;0;1105;0;0;0;0;3;0;595;0;0;0;0;4;0;841;0;0;0;0;5;0;0;0;0;0;0;0;0;6;0;1628;0;0;0;0;0;0;7;0;1030;0;0;0;0;8;0;1044;0;0;0;0;9;0;484;0;0;0;0
13.12.20;23:45:00;1;446;13397;0;2;0;1105;0;0;0;0;3;0;595;0;0;0;0;4;0;841;0;0;0;0;5;0;0;0;0;0;0;0;0;6;0;1628;0;0;0;0;0;0;7;0;1030;0;0;0;0;8;0;1044;0;0;0;0;9;0;484;0;0;0;0
13.12.20;23:40:00;1;481;13360;0;2;0;1105;0;0;0;0;3;0;595;0;0;0;0;4;0;841;0;0;0;0;5;0;0;0;0;0;0;0;0;6;0;1628;0;0;0;0;0;0;7;0;1030;0;0;0;0;8;0;1044;0;0;0;0;9;0;484;0;0;0;0
13.12.20;23:35:00;1;413;13320;0;2;0;1105;0;0;0;0;3;0;595;0;0;0;0;4;0;841;0;0;0;0;5;0;0;0;0;0;0;0;0;6;0;1628;0;0;0;0;0;0;7;0;1030;0;0;0;0;8;0;1044;0;0;0;0;9;0;484;0;0;0;0
13.12.20;23:30:00;1;416;13286;0;2;0;1105;0;0;0;0;3;0;595;0;0;0;0;4;0;841;0;0;0;0;5;0;0;0;0;0;0;0;0;6;0;1628;0;0;0;0;0;0;7;0;1030;0;0;0;0;8;0;1044;0;0;0;0;9;0;484;0;0;0;0
13.12.20;23:25:00;1;494;13251;0;2;0;1105;0;0;0;0;3;0;595;0;0;0;0;4;0;841;0;0;0;0;5;0;0;0;0;0;0;0;0;6;0;1628;0;0;0;0;0;0;7;0;1030;0;0;0;0;8;0;1044;0;0;0;0;9;0;484;0;0;0;0
13.12.20;23:20:00;1;553;13210;0;2;0;1105;0;0;0;0;3;0;595;0;0;0;0;4;0;841;0;0;0;0;5;0;0;0;0;0;0;0;0;6;0;1628;0;0;0;0;0;0;7;0;1030;0;0;0;0;8;0;1044;0;0;0;0;9;0;484;0;0;0;0
13.12.20;23:15:00;1;457;13165;0;2;0;1105;0;0;0;0;3;0;595;0;0;0;0;4;0;841;0;0;0;0;5;0;0;0;0;0;0;0;0;6;0;1628;0;0;0;0;0;0;7;0;1030;0;0;0;0;8;0;1044;0;0;0;0;9;0;484;0;0;0;0
13.12.20;23:10:00;1;441;13125;0;2;0;1105;0;0;0;0;3;0;595;0;0;0;0;4;0;841;0;0;0;0;5;0;0;0;0;0;0;0;0;6;0;1628;0;0;0;0;0;0;7;0;1030;0;0;0;0;8;0;1044;0;0;0;0;9;0;484;0;0;0;0
13.12.20;23:07:00;1;394;13102;0;2;0;1105;0;0;0;0;3;0;595;0;0;0;0;4;0;841;0;0;0;0;5;0;0;0;0;0;0;0;0;6;0;1628;0;0;0;0;0;0;7;0;1030;0;0;0;0;8;0;1044;0;0;0;0;9;0;484;0;0;0;0
13.12.20;23:00:00;1;414;13056;0;2;0;1105;0;0;0;0;3;0;595;0;0;0;0;4;0;841;0;0;0;0;5;0;0;0;0;0;0;0;0;6;0;1628;0;0;0;0;0;0;7;0;1030;0;0;0;0;8;0;1044;0;0;0;0;9;0;484;0;0;0;0
13.12.20;22:55:00;1;423;13021;0;2;0;1105;0;0;0;0;3;0;595;0;0;0;0;4;0;841;0;0;0;0;5;0;0;0;0;0;0;0;0;6;0;1628;2;0;0;0;0;0;7;0;1030;0;0;0;0;8;0;1044;0;0;0;0;9;0;484;0;0;0;0
13.12.20;22:50:00;1;463;12986;0;2;0;1105;0;0;0;0;3;0;595;0;0;0;0;4;0;841;0;0;0;0;5;0;0;0;0;0;0;0;0;6;0;1628;2;0;0;0;0;0;7;0;1030;0;0;0;0;8;0;1044;0;0;0;0;9;0;484;0;0;0;0
13.12.20;22:45:00;1;388;12948;0;2;0;1105;0;0;0;0;3;0;595;0;0;0;0;4;0;841;0;0;0;0;5;0;0;0;0;0;0;0;0;6;0;1628;2;0;0;0;0;0;7;0;1030;0;0;0;0;8;0;1044;0;0;0;0;9;0;484;0;0;0;0
13.12.20;22:40:00;1;406;12916;0;2;0;1105;0;0;0;0;3;0;595;0;0;0;0;4;0;841;0;0;0;0;5;0;0;0;0;0;0;0;0;6;0;1628;2;0;0;0;0;0;7;0;1030;0;0;0;0;8;0;1044;0;0;0;0;9;0;484;0;0;0;0
13.12.20;22:35:00;1;447;12882;0;2;0;1105;0;0;0;0;3;0;595;0;0;0;0;4;0;841;0;0;0;0;5;0;0;0;0;0;0;0;0;6;0;1628;2;0;0;0;0;0;7;0;1030;0;0;0;0;8;0;1044;0;0;0;0;9;0;484;0;0;0;0
13.12.20;22:30:00;1;482;12845;0;2;0;1105;0;0;0;0;3;0;595;0;0;0;0;4;0;841;0;0;0;0;5;0;0;0;0;0;0;0;0;6;0;1628;2;0;0;0;0;0;7;0;1030;0;0;0;0;8;0;1044;0;0;0;0;9;0;484;0;0;0;0
13.12.20;22:25:00;1;494;12806;0;2;0;1105;0;0;0;0;3;0;595;0;0;0;0;4;0;841;0;0;0;0;5;0;0;0;0;0;0;0;0;6;0;1628;2;0;0;0;0;0;7;0;1030;0;0;0;0;8;0;1044;0;0;0;0;9;0;484;0;0;0;0
13.12.20;22:20:00;1;485;12765;0;2;0;1105;0;0;0;0;3;0;595;0;0;0;0;4;0;841;0;0;0;0;5;0;0;0;0;0;0;0;0;6;0;1628;2;0;0;0;0;0;7;0;1030;0;0;0;0;8;0;1044;0;0;0;0;9;0;484;0;0;0;0
13.12.20;22:15:00;1;414;12721;0;2;0;1105;0;0;0;0;3;0;595;0;0;0;0;4;0;841;0;0;0;0;5;0;0;0;0;0;0;0;0;6;0;1628;2;0;0;0;0;0;7;0;1030;0;0;0;0;8;0;1044;0;0;0;0;9;0;484;0;0;0;0
13.12.20;22:10:00;1;459;12687;0;2;0;1105;0;0;0;0;3;0;595;0;0;0;0;4;0;841;0;0;0;0;5;0;0;0;0;0;0;0;0;6;0;1628;2;0;0;0;0;0;7;0;1030;0;0;0;0;8;0;1044;0;0;0;0;9;0;484;0;0;0;0
13.12.20;22:05:00;1;503;12649;0;2;0;1105;0;0;0;0;3;0;595;0;0;0;0;4;0;841;0;0;0;0;5;0;0;0;0;0;0;0;0;6;0;1628;2;0;0;0;0;0;7;0;1030;0;0;0;0;8;0;1044;0;0;0;0;9;0;484;0;0;0;0
13.12.20;22:00:00;1;956;12610;0;2;0;1105;0;0;0;0;3;0;595;0;0;0;0;4;0;841;0;0;0;0;5;0;0;0;0;0;0;0;0;6;0;1628;2;0;0;0;0;0;7;0;1030;0;0;0;0;8;0;1044;0;0;0;0;9;0;484;0;0;0;0
13.12.20;21:55:00;1;631;12517;0;2;0;1105;0;0;0;0;3;0;595;0;0;0;0;4;0;841;0;0;0;0;5;0;0;0;0;0;0;0;0;6;0;1628;2;0;0;0;0;0;7;0;1030;0;0;0;0;8;0;1044;0;0;0;0;9;0;484;0;0;0;0
13.12.20;21:50:00;1;598;12467;0;2;0;1105;0;0;0;0;3;0;595;0;0;0;0;4;0;841;0;0;0;0;5;0;0;0;0;0;0;0;0;6;0;1628;2;0;0;0;0;0;7;0;1030;0;0;0;0;8;0;1044;0;0;0;0;9;0;484;0;0;0;0
13.12.20;21:45:00;1;519;12415;0;2;0;1105;0;0;0;0;3;0;595;0;0;0;0;4;0;841;0;0;0;0;5;0;0;0;0;0;0;0;0;6;0;1628;2;0;0;0;0;0;7;0;1030;0;0;0;0;8;0;1044;0;0;0;0;9;0;484;0;0;0;0
13.12.20;21:40:00;1;559;12372;0;2;0;1105;0;0;0;0;3;0;595;0;0;0;0;4;0;841;0;0;0;0;5;0;0;0;0;0;0;0;0;6;0;1628;2;0;0;0;0;0;7;0;1030;0;0;0;0;8;0;1044;0;0;0;0;9;0;484;0;0;0;0
13.12.20;21:35:00;1;565;12325;0;2;0;1105;0;0;0;0;3;0;595;0;0;0;0;4;0;841;0;0;0;0;5;0;0;0;0;0;0;0;0;6;0;1628;2;0;0;0;0;0;7;0;1030;0;0;0;0;8;0;1044;0;0;0;0;9;0;484;0;0;0;0
13.12.20;21:30:00;1;592;12277;0;2;0;1105;0;0;0;0;3;0;595;0;0;0;0;4;0;841;0;0;0;0;5;0;0;0;0;0;0;0;0;6;0;1628;2;0;0;0;0;0;7;0;1030;0;0;0;0;8;0;1044;0;0;0;0;9;0;484;0;0;0;0
13.12.20;21:25:00;1;629;12228;0;2;0;1105;0;0;0;0;3;0;595;0;0;0;0;4;0;841;0;0;0;0;5;0;0;0;0;0;0;0;0;6;0;1628;2;0;0;0;0;0;7;0;1030;0;0;0;0;8;0;1044;0;0;0;0;9;0;484;0;0;0;0
13.12.20;21:20:00;1;626;12176;0;2;0;1105;0;0;0;0;3;0;595;0;0;0;0;4;0;841;0;0;0;0;5;0;0;0;0;0;0;0;0;6;0;1628;2;0;0;0;0;0;7;0;1030;0;0;0;0;8;0;1044;0;0;0;0;9;0;484;0;0;0;0
13.12.20;21:15:00;1;579;12123;0;2;0;1105;0;0;0;0;3;0;595;0;0;0;0;4;0;841;0;0;0;0;5;0;0;0;0;0;0;0;0;6;0;1628;2;0;0;0;0;0;7;0;1030;0;0;0;0;8;0;1044;0;0;0;0;9;0;484;0;0;0;0
13.12.20;21:10:00;1;554;12075;0;2;0;1105;0;0;0;0;3;0;595;0;0;0;0;4;0;841;0;0;0;0;5;0;0;0;0;0;0;0;0;6;0;1628;2;0;0;0;0;0;7;0;1030;0;0;0;0;8;0;1044;0;0;0;0;9;0;484;0;0;0;0
13.12.20;21:05:00;1;630;12029;0;2;0;1105;0;0;0;0;3;0;595;0;0;0;0;4;0;841;0;0;0;0;5;0;0;0;0;0;0;0;0;6;0;1628;2;0;0;0;0;0;7;0;1030;0;0;0;0;8;0;1044;0;0;0;0;9;0;484;0;0;0;0
13.12.20;21:00:00;1;671;11977;0;2;0;1105;0;0;0;0;3;0;595;0;0;0;0;4;0;841;0;0;0;0;5;0;0;0;0;0;0;0;0;6;0;1628;2;0;0;0;0;0;7;0;1030;0;0;0;0;8;0;1044;0;0;0;0;9;0;484;0;0;0;0
13.12.20;20:55:00;1;724;11920;0;2;0;1105;0;0;0;0;3;0;595;0;0;0;0;4;0;841;0;0;0;0;5;0;0;0;0;0;0;0;0;6;0;1628;2;0;0;0;0;0;7;0;1030;0;0;0;0;8;0;1044;0;0;0;0;9;0;484;0;0;0;0
13.12.20;20:50:00;1;707;11860;0;2;0;1105;0;0;0;0;3;0;595;0;0;0;0;4;0;841;0;0;0;0;5;0;0;0;0;0;0;0;0;6;0;1628;2;0;0;0;0;0;7;0;1030;0;0;0;0;8;0;1044;0;0;0;0;9;0;484;0;0;0;0
13.12.20;20:45:00;1;695;11799;0;2;0;1105;0;0;0;0;3;0;595;0;0;0;0;4;0;841;0;0;0;0;5;0;0;0;0;0;0;0;0;6;0;1628;2;0;0;0;0;0;7;0;1030;0;0;0;0;8;0;1044;0;0;0;0;9;0;484;0;0;0;0
13.12.20;20:40:00;1;712;11740;0;2;0;1105;0;0;0;0;3;0;595;0;0;0;0;4;0;841;0;0;0;0;5;0;0;0;0;0;0;0;0;6;0;1628;2;0;0;0;0;0;7;0;1030;0;0;0;0;8;0;1044;0;0;0;0;9;0;484;0;0;0;0
13.12.20;20:35:00;1;822;11681;0;2;0;1105;0;0;0;0;3;0;595;0;0;0;0;4;0;841;0;0;0;0;5;0;0;0;0;0;0;0;0;6;0;1628;2;0;0;0;0;0;7;0;1030;0;0;0;0;8;0;1044;0;0;0;0;9;0;484;0;0;0;0
13.12.20;20:30:00;1;840;11613;0;2;0;1105;0;0;0;0;3;0;595;0;0;0;0;4;0;841;0;0;0;0;5;0;0;0;0;0;0;0;0;6;0;1628;2;0;0;0;0;0;7;0;1030;0;0;0;0;8;0;1044;0;0;0;0;9;0;484;0;0;0;0
13.12.20;20:25:00;1;727;11542;0;2;0;1105;0;0;0;0;3;0;595;0;0;0;0;4;0;841;0;0;0;0;5;0;0;0;0;0;0;0;0;6;0;1628;2;0;0;0;0;0;7;0;1030;0;0;0;0;8;0;1044;0;0;0;0;9;0;484;0;0;0;0
13.12.20;20:20:00;1;530;11482;0;2;0;1105;0;0;0;0;3;0;595;0;0;0;0;4;0;841;0;0;0;0;5;0;0;0;0;0;0;0;0;6;0;1628;2;0;0;0;0;0;7;0;1030;0;0;0;0;8;0;1044;0;0;0;0;9;0;484;0;0;0;0
13.12.20;20:15:00;1;532;11437;0;2;0;1105;0;0;0;0;3;0;595;0;0;0;0;4;0;841;0;0;0;0;5;0;0;0;0;0;0;0;0;6;0;1628;2;0;0;0;0;0;7;0;1030;0;0;0;0;8;0;1044;0;0;0;0;9;0;484;0;0;0;0
13.12.20;20:10:00;1;545;11392;0;2;0;1105;0;0;0;0;3;0;595;0;0;0;0;4;0;841;0;0;0;0;5;0;0;0;0;0;0;0;0;6;0;1628;2;0;0;0;0;0;7;0;1030;0;0;0;0;8;0;1044;0;0;0;0;9;0;484;0;0;0;0
13.12.20;20:05:00;1;560;11347;0;2;0;1105;0;0;0;0;3;0;595;0;0;0;0;4;0;841;0;0;0;0;5;0;0;0;0;0;0;0;0;6;0;1628;2;0;0;0;0;0;7;0;1030;0;0;0;0;8;0;1044;0;0;0;0;9;0;484;0;0;0;0
13.12.20;20:00:00;1;575;11300;0;2;0;1105;0;0;0;0;3;0;595;0;0;0;0;4;0;841;0;0;0;0;5;0;0;0;0;0;0;0;0;6;0;1628;2;0;0;0;0;0;7;0;1030;0;0;0;0;8;0;1044;0;0;0;0;9;0;484;0;0;0;0
13.12.20;19:55:00;1;688;11251;0;2;0;1105;0;0;0;0;3;0;595;0;0;0;0;4;0;841;0;0;0;0;5;0;0;0;0;0;0;0;0;6;0;1628;2;0;0;0;0;0;7;0;1030;0;0;0;0;8;0;1044;0;0;0;0;9;0;484;0;0;0;0
13.12.20;19:50:00;1;644;11196;0;2;0;1105;0;0;0;0;3;0;595;0;0;0;0;4;0;841;0;0;0;0;5;0;0;0;0;0;0;0;0;6;0;1628;2;0;0;0;0;0;7;0;1030;0;0;0;0;8;0;1044;0;0;0;0;9;0;484;0;0;0;0
13.12.20;19:45:00;1;635;11142;0;2;0;1105;0;0;0;0;3;0;595;0;0;0;0;4;0;841;0;0;0;0;5;0;0;0;0;0;0;0;0;6;0;1628;2;0;0;0;0;0;7;0;1030;0;0;0;0;8;0;1044;0;0;0;0;9;0;484;0;0;0;0
13.12.20;19:40:00;1;653;11090;0;2;0;1105;0;0;0;0;3;0;595;0;0;0;0;4;0;841;0;0;0;0;5;0;0;0;0;0;0;0;0;6;0;1628;2;0;0;0;0;0;7;0;1030;0;0;0;0;8;0;1044;0;0;0;0;9;0;484;0;0;0;0
13.12.20;19:35:00;1;680;11035;0;2;0;1105;0;0;0;0;3;0;595;0;0;0;0;4;0;841;0;0;0;0;5;0;0;0;0;0;0;0;0;6;0;1628;2;0;0;0;0;0;7;0;1030;0;0;0;0;8;0;1044;0;0;0;0;9;0;484;0;0;0;0
13.12.20;19:30:00;1;646;10979;0;2;0;1105;0;0;0;0;3;0;595;0;0;0;0;4;0;841;0;0;0;0;5;0;0;0;0;0;0;0;0;6;0;1628;2;0;0;0;0;0;7;0;1030;0;0;0;0;8;0;1044;0;0;0;0;9;0;484;0;0;0;0
13.12.20;19:25:00;1;631;10926;0;2;0;1105;0;0;0;0;3;0;595;0;0;0;0;4;0;841;0;0;0;0;5;0;0;0;0;0;0;0;0;6;0;1628;2;0;0;0;0;0;7;0;1030;0;0;0;0;8;0;1044;0;0;0;0;9;0;484;0;0;0;0
13.12.20;19:20:00;1;642;10872;0;2;0;1105;0;0;0;0;3;0;595;0;0;0;0;4;0;841;0;0;0;0;5;0;0;0;0;0;0;0;0;6;0;1628;2;0;0;0;0;0;7;0;1030;0;0;0;0;8;0;1044;0;0;0;0;9;0;484;0;0;0;0
13.12.20;19:15:00;1;683;10818;0;2;0;1105;0;0;0;0;3;0;595;0;0;0;0;4;0;841;0;0;0;0;5;0;0;0;0;0;0;0;0;6;0;1628;2;0;0;0;0;0;7;0;1030;0;0;0;0;8;0;1044;0;0;0;0;9;0;484;0;0;0;0
13.12.20;19:10:00;1;631;10762;0;2;0;1105;0;0;0;0;3;0;595;0;0;0;0;4;0;841;0;0;0;0;5;0;0;0;0;0;0;0;0;6;0;1628;2;0;0;0;0;0;7;0;1030;0;0;0;0;8;0;1044;0;0;0;0;9;0;484;0;0;0;0
13.12.20;19:05:00;1;584;10708;0;2;0;1105;0;0;0;0;3;0;595;0;0;0;0;4;0;841;0;0;0;0;5;0;0;0;0;0;0;0;0;6;0;1628;2;0;0;0;0;0;7;0;1030;0;0;0;0;8;0;1044;0;0;0;0;9;0;484;0;0;0;0
13.12.20;19:00:00;1;633;10660;0;2;0;1105;0;0;0;0;3;0;595;0;0;0;0;4;0;841;0;0;0;0;5;0;0;0;0;0;0;0;0;6;0;1628;2;0;0;0;0;0;7;0;1030;0;0;0;0;8;0;1044;0;0;0;0;9;0;484;0;0;0;0
13.12.20;18:55:00;1;742;10607;0;2;0;1105;0;0;0;0;3;0;595;0;0;0;0;4;0;841;0;0;0;0;5;0;0;0;0;0;0;0;0;6;0;1628;2;0;0;0;0;0;7;0;1030;0;0;0;0;8;0;1044;0;0;0;0;9;0;484;0;0;0;0
13.12.20;18:50:00;1;657;10547;0;2;0;1105;0;0;0;0;3;0;595;0;0;0;0;4;0;841;0;0;0;0;5;0;0;0;0;0;0;0;0;6;0;1628;2;0;0;0;0;0;7;0;1030;0;0;0;0;8;0;1044;0;0;0;0;9;0;484;0;0;0;0
13.12.20;18:45:00;1;630;10491;0;2;0;1105;0;0;0;0;3;0;595;0;0;0;0;4;0;841;0;0;0;0;5;0;0;0;0;0;0;0;0;6;0;1628;2;0;0;0;0;0;7;0;1030;0;0;0;0;8;0;1044;0;0;0;0;9;0;484;0;0;0;0
13.12.20;18:40:00;1;539;10440;0;2;0;1105;0;0;0;0;3;0;595;0;0;0;0;4;0;841;0;0;0;0;5;0;0;0;0;0;0;0;0;6;0;1628;2;0;0;0;0;0;7;0;1030;0;0;0;0;8;0;1044;0;0;0;0;9;0;484;0;0;0;0
13.12.20;18:35:00;1;543;10395;0;2;0;1105;0;0;0;0;3;0;595;0;0;0;0;4;0;841;0;0;0;0;5;0;0;0;0;0;0;0;0;6;0;1628;2;0;0;0;0;0;7;0;1030;0;0;0;0;8;0;1044;0;0;0;0;9;0;484;0;0;0;0
13.12.20;18:30:00;1;563;10349;0;2;0;1105;0;0;0;0;3;0;595;0;0;0;0;4;0;841;0;0;0;0;5;0;0;0;0;0;0;0;0;6;0;1628;2;0;0;0;0;0;7;0;1030;0;0;0;0;8;0;1044;0;0;0;0;9;0;484;0;0;0;0
13.12.20;18:25:00;1;643;10302;0;2;0;1105;0;0;0;0;3;0;595;0;0;0;0;4;0;841;0;0;0;0;5;0;0;0;0;0;0;0;0;6;0;1628;2;0;0;0;0;0;7;0;1030;0;0;0;0;8;0;1044;0;0;0;0;9;0;484;0;0;0;0
13.12.20;18:20:00;1;553;10248;0;2;0;1105;0;0;0;0;3;0;595;0;0;0;0;4;0;841;0;0;0;0;5;0;0;0;0;0;0;0;0;6;0;1628;2;0;0;0;0;0;7;0;1030;0;0;0;0;8;0;1044;0;0;0;0;9;0;484;0;0;0;0
13.12.20;18:15:00;1;567;10200;0;2;0;1105;0;0;0;0;3;0;595;0;0;0;0;4;0;841;0;0;0;0;5;0;0;0;0;0;0;0;0;6;0;1628;2;0;0;0;0;0;7;0;1030;0;0;0;0;8;0;1044;0;0;0;0;9;0;484;0;0;0;0
13.12.20;18:10:00;1;616;10154;0;2;0;1105;0;0;0;0;3;0;595;0;0;0;0;4;0;841;0;0;0;0;5;0;0;0;0;0;0;0;0;6;0;1628;2;0;0;0;0;0;7;0;1030;0;0;0;0;8;0;1044;0;0;0;0;9;0;484;0;0;0;0
13.12.20;18:05:00;1;764;10102;0;2;0;1105;0;0;0;0;3;0;595;0;0;0;0;4;0;841;0;0;0;0;5;0;0;0;0;0;0;0;0;6;0;1628;2;0;0;0;0;0;7;0;1030;0;0;0;0;8;0;1044;0;0;0;0;9;0;484;0;0;0;0
13.12.20;18:00:00;1;1378;10044;0;2;0;1105;0;0;0;0;3;0;595;0;0;0;0;4;0;841;0;0;0;0;5;0;0;0;0;0;0;0;0;6;0;1628;2;0;0;0;0;0;7;0;1030;0;0;0;0;8;0;1044;0;0;0;0;9;0;484;0;0;0;0
13.12.20;17:55:00;1;1429;9925;0;2;0;1105;0;0;0;0;3;0;595;0;0;0;0;4;0;841;0;0;0;0;5;0;0;0;0;0;0;0;0;6;0;1628;2;0;0;0;0;0;7;0;1030;0;0;0;0;8;0;1044;0;0;0;0;9;0;484;0;0;0;0
13.12.20;17:50:00;1;1424;9806;0;2;0;1105;0;0;0;0;3;0;595;0;0;0;0;4;0;841;0;0;0;0;5;0;0;0;0;0;0;0;0;6;0;1628;2;0;0;0;0;0;7;0;1030;0;0;0;0;8;0;1044;0;0;0;0;9;0;484;0;0;0;0
13.12.20;17:45:00;1;1615;9692;0;2;0;1105;0;0;0;0;3;0;595;0;0;0;0;4;0;841;0;0;0;0;5;0;0;0;0;0;0;0;0;6;0;1628;2;0;0;0;0;0;7;0;1030;0;0;0;0;8;0;1044;0;0;0;0;9;0;484;0;0;0;0
13.12.20;17:40:00;1;1452;9546;0;2;0;1105;0;0;0;0;3;0;595;0;0;0;0;4;0;841;0;0;0;0;5;0;0;0;0;0;0;0;0;6;0;1628;2;0;0;0;0;0;7;0;1030;0;0;0;0;8;0;1044;0;0;0;0;9;0;484;0;0;0;0
13.12.20;17:35:00;1;1023;9409;0;2;0;1105;0;0;0;0;3;0;595;0;0;0;0;4;0;841;0;0;0;0;5;0;0;0;0;0;0;0;0;6;0;1628;2;0;0;0;0;0;7;0;1030;0;0;0;0;8;0;1044;0;0;0;0;9;0;484;0;0;0;0
13.12.20;17:30:00;1;1277;9324;0;2;0;1105;0;0;0;0;3;0;595;0;0;0;0;4;0;841;0;0;0;0;5;0;0;0;0;0;0;0;0;6;0;1628;2;0;0;0;0;0;7;0;1030;0;0;0;0;8;0;1044;0;0;0;0;9;0;484;0;0;0;0
13.12.20;17:25:00;1;991;9219;0;2;0;1105;0;0;0;0;3;0;595;0;0;0;0;4;0;841;0;0;0;0;5;0;0;0;0;0;0;0;0;6;0;1628;2;0;0;0;0;0;7;0;1030;0;0;0;0;8;0;1044;0;0;0;0;9;0;484;0;0;0;0
13.12.20;17:20:00;1;666;9131;0;2;0;1105;0;0;0;0;3;0;595;0;0;0;0;4;0;841;0;0;0;0;5;0;0;0;0;0;0;0;0;6;0;1628;2;0;0;0;0;0;7;0;1030;0;0;0;0;8;0;1044;0;0;0;0;9;0;484;0;0;0;0
13.12.20;17:15:00;1;943;9076;0;2;0;1105;0;0;0;0;3;0;595;0;0;0;0;4;0;841;0;0;0;0;5;0;0;0;0;0;0;0;0;6;0;1628;2;0;0;0;0;0;7;0;1030;0;0;0;0;8;0;1044;0;0;0;0;9;0;484;0;0;0;0
13.12.20;17:10:00;1;796;9004;0;2;0;1105;0;0;0;0;3;0;595;0;0;0;0;4;0;841;0;0;0;0;5;0;0;0;0;0;0;0;0;6;0;1628;2;0;0;0;0;0;7;0;1030;0;0;0;0;8;0;1044;0;0;0;0;9;0;484;0;0;0;0
13.12.20;17:05:00;1;1250;8926;0;2;0;1105;0;0;0;0;3;0;595;0;0;0;0;4;0;841;0;0;0;0;5;0;0;0;0;0;0;0;0;6;0;1628;2;0;0;0;0;0;7;0;1030;0;0;0;0;8;0;1044;0;0;0;0;9;0;484;0;0;0;0
13.12.20;17:00:00;1;3032;8818;0;2;0;1105;0;0;0;0;3;0;595;0;0;0;0;4;0;841;0;0;0;0;5;0;0;0;0;0;0;0;0;6;0;1628;2;0;0;0;0;0;7;0;1030;0;0;0;0;8;0;1044;0;0;0;0;9;0;484;0;0;0;0
13.12.20;16:55:00;1;813;8590;0;2;0;1105;0;0;0;0;3;0;595;0;0;0;0;4;0;841;0;0;0;0;5;0;0;0;0;0;0;0;0;6;0;1628;2;0;0;0;0;0;7;0;1030;0;0;0;0;8;0;1044;0;0;0;0;9;0;484;0;0;0;0
13.12.20;16:50:00;1;605;8522;0;2;0;1105;0;0;0;0;3;0;595;0;0;0;0;4;0;841;0;0;0;0;5;0;0;0;0;0;0;0;0;6;0;1628;2;0;0;0;0;0;7;0;1030;0;0;0;0;8;0;1044;0;0;0;0;9;0;484;0;0;0;0
13.12.20;16:45:00;1;504;8470;0;2;0;1105;0;0;0;0;3;0;595;0;0;0;0;4;0;841;0;0;0;0;5;0;0;0;0;0;0;0;0;6;0;1628;2;0;0;0;0;0;7;0;1030;0;0;0;0;8;0;1044;0;0;0;0;9;0;484;0;0;0;0
13.12.20;16:40:00;1;747;8420;0;2;0;1105;0;0;0;0;3;0;595;0;0;0;0;4;0;841;0;0;0;0;5;0;0;0;0;0;0;0;0;6;0;1628;2;0;0;0;0;0;7;0;1030;0;0;0;0;8;0;1044;0;0;0;0;9;0;484;0;0;0;0
13.12.20;16:35:00;1;607;8363;0;2;0;1105;0;0;0;0;3;0;595;0;0;0;0;4;0;841;0;0;0;0;5;0;0;0;0;0;0;0;0;6;0;1628;2;0;0;0;0;0;7;0;1030;0;0;0;0;8;0;1044;0;0;0;0;9;0;484;0;0;0;0
13.12.20;16:30:00;1;572;8313;0;2;0;1105;0;0;0;0;3;0;595;0;0;0;0;4;0;841;0;0;0;0;5;0;0;0;0;0;0;0;0;6;0;1628;2;0;0;0;0;0;7;0;1030;0;0;0;0;8;0;1044;0;0;0;0;9;0;484;0;0;0;0
13.12.20;16:25:00;1;568;8266;0;2;0;1105;0;0;0;0;3;0;595;0;0;198;8;4;0;841;0;0;0;0;5;0;0;0;0;0;0;0;0;6;0;1628;2;0;0;0;0;0;7;0;1030;0;0;0;0;8;0;1044;0;0;0;0;9;0;484;0;0;0;0
13.12.20;16:20:00;1;642;8218;0;2;0;1105;0;0;221;6;3;0;595;6;0;291;11;4;0;841;0;0;0;0;5;0;0;0;0;0;0;0;0;6;0;1628;2;0;0;0;0;0;7;0;1030;0;0;0;0;8;0;1044;0;0;0;0;9;0;484;0;0;0;0
13.12.20;16:15:00;1;661;8165;0;2;0;1105;6;0;278;8;3;0;595;6;0;303;11;4;0;841;0;0;0;0;5;0;0;0;0;0;0;0;0;6;0;1628;2;0;0;0;0;0;7;0;1030;0;0;0;0;8;0;1044;0;0;0;0;9;0;484;0;0;0;0
13.12.20;16:10:00;1;588;8110;0;2;0;1105;6;0;293;8;3;0;595;6;0;323;12;4;0;841;0;0;66;6;5;0;0;0;0;0;0;0;0;6;0;1628;2;0;0;0;0;0;7;0;1030;0;0;0;0;8;0;1044;0;0;0;0;9;0;484;0;0;0;0
13.12.20;16:05:00;1;564;8061;0;2;0;1105;6;0;307;8;3;0;595;6;0;362;12;4;0;841;1;0;91;8;5;0;0;0;0;0;0;0;0;6;0;1628;1;0;0;0;0;1;7;0;1030;0;0;0;0;8;0;1044;0;0;0;0;9;0;484;0;0;0;0
13.12.20;16:00:00;1;581;8013;0;2;0;1105;6;0;327;8;3;0;595;6;0;389;12;4;0;841;1;0;111;8;5;0;0;0;0;0;0;0;0;6;0;1628;1;3;1;127;130;13;7;0;1030;0;0;0;0;8;0;1044;0;0;41;2;9;0;484;0;0;128;4
13.12.20;15:55:00;1;548;7965;0;2;0;1105;6;0;348;8;3;0;595;6;1;419;12;4;0;841;1;0;137;8;5;0;0;0;0;0;0;0;0;6;0;1628;23;6;3;493;180;19;7;0;1030;6;0;269;12;8;0;1044;6;0;274;12;9;0;484;6;0;294;8
13.12.20;15:50:00;1;545;7918;0;2;0;1105;6;0;360;8;3;0;595;6;1;433;12;4;0;841;1;0;153;9;5;0;0;0;0;0;0;0;0;6;0;1628;23;6;4;472;237;20;7;0;1030;6;0;301;13;8;0;1044;6;0;307;12;9;0;484;6;0;319;8
13.12.20;15:45:00;1;550;7872;0;2;0;1105;6;0;373;9;3;0;595;6;1;455;12;4;0;841;1;0;176;9;5;0;0;0;0;0;0;0;0;6;0;1628;23;5;3;181;537;20;7;0;1030;6;0;339;13;8;0;1044;6;0;345;12;9;0;484;6;0;363;8
13.12.20;15:40:00;1;520;7826;0;2;0;1105;6;0;387;9;3;0;595;6;1;469;12;4;0;841;1;0;199;9;5;0;0;0;0;0;0;0;0;6;0;1628;23;3;3;249;560;20;7;0;1030;6;0;389;13;8;0;1044;6;0;395;12;9;0;484;6;0;423;8
13.12.20;15:35:00;1;519;7783;0;2;0;1105;6;0;406;9;3;1;595;6;3;496;12;4;0;841;3;0;213;10;5;0;0;0;0;0;0;0;0;6;0;1628;8;4;3;497;582;21;7;0;1030;6;1;435;13;8;0;1044;6;0;455;12;9;1;484;4;2;454;8
13.12.20;15:30:00;1;558;7740;0;2;0;1105;6;0;411;9;3;2;595;4;5;494;12;4;0;841;3;0;222;10;5;0;0;0;0;0;0;0;0;6;0;1628;8;8;2;404;588;21;7;0;1030;6;0;465;13;8;0;1044;4;2;448;13;9;0;483;3;2;488;8
13.12.20;15:25:00;1;610;7694;0;2;0;1105;6;0;412;9;3;3;594;3;13;456;12;4;0;841;3;0;225;10;5;0;0;0;0;0;0;0;0;6;0;1628;23;4;5;504;589;21;7;2;1030;3;3;429;13;8;1;1044;6;1;450;13;9;2;483;6;3;470;8
13.12.20;15:20:00;1;613;7642;0;2;0;1105;6;0;413;9;3;3;594;6;10;470;12;4;0;841;3;0;215;10;5;0;0;0;0;0;0;0;0;6;0;1628;8;5;3;469;591;22;7;0;1030;6;2;448;13;8;0;1044;6;2;453;13;9;3;483;6;4;466;8
13.12.20;15:15:00;1;583;7591;0;2;0;1105;6;0;413;9;3;2;594;6;4;493;12;4;0;841;3;0;212;10;5;0;0;0;0;0;0;0;0;6;0;1628;23;8;9;524;589;22;7;0;1030;6;2;453;13;8;1;1044;6;3;438;13;9;2;483;6;3;475;9
13.12.20;15:10:00;1;584;7543;0;2;2;1105;6;5;406;10;3;3;594;6;9;483;12;4;0;841;3;0;220;10;5;0;0;0;0;0;0;0;0;6;35;1628;1;20;25;503;473;23;7;1;1030;6;2;457;13;8;1;1043;6;2;459;13;9;0;483;6;2;504;9
13.12.20;15:05:00;1;585;7494;0;2;0;1105;6;0;423;10;3;1;593;6;5;518;12;4;0;841;3;0;199;10;5;0;0;0;0;0;0;0;0;6;67;1625;4;33;36;449;415;23;7;6;1030;6;8;446;14;8;2;1043;6;4;470;13;9;2;483;4;5;486;9
13.12.20;15:00:00;1;617;7446;0;2;5;1105;3;9;418;10;3;1;593;6;6;526;12;4;9;841;3;9;200;10;5;0;0;0;0;0;0;0;0;6;81;1619;4;52;54;449;415;23;7;1;1029;6;6;479;14;8;4;1043;4;14;458;13;9;1;482;3;8;503;9
13.12.20;14:55:00;1;544;7395;0;2;52;1105;4;77;360;10;3;9;593;3;18;511;12;4;25;840;3;26;198;10;5;0;0;0;0;0;0;0;0;6;101;1612;4;58;58;449;415;23;7;8;1029;4;17;465;14;8;12;1043;3;18;448;14;9;5;482;6;11;511;9
13.12.20;14:50:00;1;540;7347;0;2;57;1100;4;81;376;10;3;9;592;6;18;508;12;4;29;838;3;29;198;10;5;0;0;0;0;0;0;0;0;6;103;1604;4;61;64;449;415;23;7;5;1028;3;9;487;14;8;11;1042;3;20;468;14;9;6;482;6;12;517;9
13.12.20;14:45:00;1;526;7302;0;2;62;1095;4;88;365;10;3;4;591;6;9;542;12;4;22;836;3;23;198;10;5;0;0;0;0;0;0;0;0;6;109;1595;4;57;61;449;415;23;7;46;1028;4;72;355;14;8;42;1040;4;76;381;14;9;6;481;6;11;526;9
13.12.20;14:40:00;1;519;7258;0;2;71;1090;4;95;370;10;3;12;591;6;21;513;12;4;37;834;3;39;198;10;5;0;0;0;0;0;0;0;0;6;117;1586;4;51;55;449;415;23;7;50;1024;4;78;358;14;8;51;1037;4;86;414;14;9;9;481;6;15;524;9
13.12.20;14:35:00;1;531;7215;0;2;91;1084;4;118;361;10;3;7;590;6;11;551;12;4;57;831;3;60;197;10;5;0;0;0;0;0;0;0;0;6;147;1576;4;83;85;449;415;23;7;73;1020;4;103;426;14;8;70;1033;4;104;428;14;9;5;480;6;8;560;9
13.12.20;14:30:00;1;570;7171;0;2;103;1077;4;128;366;10;3;38;590;6;57;480;12;4;58;826;3;60;197;10;5;0;0;0;0;0;0;0;0;6;155;1563;4;82;81;449;415;23;7;72;1013;4;112;450;14;8;79;1027;4;107;459;14;9;15;480;3;21;532;9
13.12.20;14:25:00;1;625;7122;0;2;97;1068;4;122;370;10;3;9;587;6;13;549;13;4;54;821;3;56;197;10;5;0;0;0;0;0;0;0;0;6;148;1550;4;80;82;449;415;23;7;70;1007;4;103;420;14;8;78;1020;4;104;423;14;9;5;478;6;10;557;9
13.12.20;14:20:00;1;568;7071;0;2;93;1060;4;118;362;10;3;8;586;6;13;549;13;4;48;817;3;49;197;10;5;0;0;0;0;0;0;0;0;6;145;1538;4;74;77;449;415;23;7;74;1002;4;97;424;14;8;68;1014;4;102;425;14;9;12;478;6;19;528;9
13.12.20;14:15:00;1;563;7023;0;2;104;1052;4;130;363;10;3;49;586;6;73;458;13;4;65;813;3;68;197;10;5;0;0;0;0;0;0;0;0;6;156;1526;4;85;83;449;415;23;7;71;995;4;106;440;14;8;74;1008;4;108;445;14;9;7;477;6;10;558;9
13.12.20;14:10:00;1;576;6976;0;2;93;1044;4;118;363;10;3;18;582;3;26;523;13;4;53;807;3;55;197;10;5;0;0;0;0;0;0;0;0;6;152;1513;4;80;81;449;415;23;7;74;989;4;103;424;14;8;70;1002;4;102;416;14;9;13;476;6;19;528;9
13.12.20;14:05:00;1;545;6928;0;2;99;1036;4;124;364;10;3;14;580;6;23;532;13;4;54;803;3;57;197;10;5;0;0;0;0;0;0;0;0;6;155;1500;4;72;72;449;415;23;7;76;983;4;108;439;14;8;81;996;4;108;379;14;9;5;475;6;8;561;9
13.12.20;14:00:00;1;537;6882;0;2;102;1028;4;125;362;11;3;18;579;6;27;528;13;4;59;798;3;62;197;10;5;0;0;0;0;0;0;0;0;6;156;1487;4;87;90;449;415;23;7;71;977;4;107;436;14;8;85;989;4;108;386;14;9;7;475;3;10;558;9
13.12.20;13:55:00;1;625;6836;0;2;103;1019;4;128;369;11;3;16;577;6;24;537;13;4;61;793;3;64;197;10;5;0;0;0;0;0;0;0;0;6;159;1474;4;81;81;449;415;23;7;83;971;4;108;444;14;8;82;982;4;112;400;14;9;6;474;6;10;562;9
13.12.20;13:50:00;1;591;6782;0;2;107;1010;4;131;359;11;3;39;576;6;61;494;13;4;66;788;3;69;198;10;5;0;0;0;0;0;0;0;0;6;163;1461;4;85;84;449;415;23;7;89;964;4;120;431;14;8;86;975;4;124;426;14;9;8;474;6;11;560;9
13.12.20;13:45:00;1;589;6733;0;2;143;1001;4;172;386;11;3;85;573;4;120;475;13;4;111;782;3;116;222;10;5;0;0;0;0;0;0;0;0;6;209;1447;4;98;95;449;415;23;7;126;957;4;155;430;14;8;124;968;4;160;439;14;9;40;473;6;53;507;9
13.12.20;13:40:00;1;633;6684;0;2;136;989;4;164;381;11;3;78;566;4;115;498;13;4;98;773;5;102;212;10;5;0;0;0;0;0;0;0;0;6;207;1429;4;93;95;449;415;23;7;122;946;4;160;464;14;8;135;957;4;166;460;14;9;60;470;4;79;477;9
13.12.20;13:35:00;1;655;6631;0;2;116;978;4;143;377;11;3;64;559;4;100;478;13;4;75;765;3;78;198;10;5;0;0;0;0;0;0;0;0;6;177;1412;4;98;96;449;415;23;7;101;936;4;134;460;14;8;95;946;4;139;468;14;9;8;465;6;14;564;9
13.12.20;13:30:00;1;644;6577;0;2;112;968;4;137;370;11;3;62;554;4;93;445;13;4;67;759;3;70;198;10;5;0;0;0;0;0;0;0;0;6;170;1398;4;85;82;449;415;23;7;97;927;4;130;455;14;8;88;938;4;130;464;14;9;18;465;6;25;535;9
13.12.20;13:25:00;1;595;6524;0;2;125;959;4;154;378;11;3;72;549;4;107;479;13;4;81;753;3;84;199;10;5;0;0;0;0;0;0;0;0;6;186;1383;4;96;92;449;415;23;7;108;919;4;137;469;14;8;95;931;4;137;473;14;9;0;463;6;0;590;9
13.12.20;13:20:00;1;530;6472;0;2;117;949;4;144;370;11;3;34;543;4;52;515;13;4;71;746;3;74;198;10;5;0;0;0;0;0;0;0;0;6;178;1368;4;102;101;449;415;23;7;87;910;4;131;455;14;8;97;923;4;132;467;14;9;17;463;3;24;534;10
13.12.20;13:15:00;1;1030;6427;0;2;93;939;4;120;376;11;3;0;540;6;0;572;13;4;54;740;3;56;197;10;5;0;0;0;0;0;0;0;0;6;154;1353;4;82;84;449;415;23;7;79;903;4;109;382;14;8;79;915;4;109;446;14;9;6;462;6;10;559;10
13.12.20;13:10:00;1;2377;6353;0;2;89;931;4;117;370;11;3;8;540;4;13;546;13;4;51;736;3;53;197;10;5;0;0;0;0;0;0;0;0;6;150;1340;4;78;83;449;415;23;7;75;896;4;97;358;14;8;76;908;4;106;433;14;9;12;461;6;20;527;10
13.12.20;13:05:00;1;2367;6155;0;2;109;924;4;135;373;11;3;60;539;4;92;436;14;4;68;731;3;71;198;10;5;0;0;0;0;0;0;0;0;6;169;1327;4;85;84;449;415;23;7;85;890;4;113;401;14;8;82;902;4;115;408;14;9;6;460;6;9;562;10